DW2057 Weather Reports


time (UTC)temp
C
wind
direction
speed
KPH
gust
KPH
rain 1hr
cm
rain 24hr
cm
rain mn
cm
humidity
%
barometer
mb
20260508210132 7 265 1.6 3.2 0.00 0.00 0.00 44 1012.3
20260508210005 7 268 3.2 4.8 0.00 0.00 0.00 45 1019.7
20260508205629 7 264 0.0 1.6 0.00 0.00 0.00 45 1012.3
20260508205504 7 280 1.6 3.2 0.00 0.00 0.00 44 1019.8
20260508205125 7 279 1.6 3.2 0.00 0.00 0.00 44 1012.3
20260508205005 7 270 1.6 3.2 0.00 0.00 0.00 45 1019.7
20260508204621 7 279 0.0 1.6 0.00 0.00 0.00 43 1012.0
20260508204505 7 280 1.6 3.2 0.00 0.00 0.00 43 1019.5
20260508204118 7 269 1.6 3.2 0.00 0.00 0.00 44 1011.9
20260508203614 7 269 1.6 4.8 0.00 0.00 0.00 43 1012.0
20260508203110 7 260 4.8 4.8 0.00 0.00 0.00 43 1011.6
20260508203005 7 283 3.2 4.8 0.00 0.00 0.00 44 1019.1
20260508202606 7 281 0.0 1.6 0.00 0.00 0.00 44 1011.8
20260508202504 7 281 1.6 3.2 0.00 0.00 0.00 45 1018.9
20260508202104 7 274 1.6 1.6 0.00 0.00 0.00 45 1011.6
20260508201600 7 239 0.0 3.2 0.00 0.00 0.00 43 1011.5
20260508201505 7 271 3.2 6.4 0.00 0.00 0.00 43 1019.0
20260508201057 7 260 1.6 3.2 0.00 0.00 0.00 44 1011.5
20260508200554 7 216 1.6 4.8 0.00 0.00 0.00 42 1011.5
20260508200049 7 245 1.6 3.2 0.00 0.00 0.00 44 1011.3
20260508200005 7 270 3.2 4.8 0.00 0.00 0.00 44 1019.0
20260508195547 7 271 1.6 3.2 0.00 0.00 0.00 44 1011.3
20260508195504 7 271 3.2 4.8 0.00 0.00 0.00 43 1018.9
20260508195043 6 273 1.6 3.2 0.00 0.00 0.00 45 1011.3
20260508195005 6 273 3.2 4.8 0.00 0.00 0.00 45 1018.8
20260508194540 6 299 0.0 3.2 0.00 0.00 0.00 46 1011.0
20260508194507 6 299 1.6 4.8 0.00 0.00 0.00 46 1018.5
20260508194037 6 271 3.2 3.2 0.00 0.00 0.00 45 1011.1
20260508193533 6 265 0.0 3.2 0.00 0.00 0.00 44 1011.2
20260508193505 6 265 0.0 4.8 0.00 0.00 0.00 44 1018.7
20260508193030 6 276 1.6 3.2 0.00 0.00 0.00 44 1011.3
20260508192527 6 287 3.2 3.2 0.00 0.00 0.00 42 1011.3
20260508192504 6 287 3.2 4.8 0.00 0.00 0.00 42 1018.8
20260508192024 6 296 1.6 1.6 0.00 0.00 0.00 41 1011.3
20260508191521 7 296 1.6 3.2 0.00 0.00 0.00 40 1011.3
20260508191505 7 296 1.6 4.8 0.00 0.00 0.00 40 1018.8
20260508191017 7 281 0.0 1.6 0.00 0.00 0.00 39 1011.3
20260508190515 7 277 0.0 3.2 0.00 0.00 0.00 39 1011.3
20260508190505 7 277 1.6 4.8 0.00 0.00 0.00 39 1018.8
20260508190011 7 282 1.6 3.2 0.00 0.00 0.00 40 1011.1
20260508190006 7 282 3.2 4.8 0.00 0.00 0.00 40 1018.6
20260508185509 7 288 3.2 4.8 0.00 0.00 0.00 39 1011.0
20260508185006 7 297 1.6 1.6 0.00 0.00 0.00 38 1011.2
20260508184505 7 295 3.2 6.4 0.00 0.00 0.00 36 1018.7
20260508184000 7 280 3.2 3.2 0.00 0.00 0.00 37 1011.1
20260508183456 7 323 0.0 3.2 0.00 0.00 0.00 36 1010.8
20260508183004 7 287 1.6 4.8 0.00 0.00 0.00 35 1018.5
20260508182951 7 287 1.6 3.2 0.00 0.00 0.00 35 1011.0
20260508182505 7 281 4.8 6.4 0.00 0.00 0.00 35 1018.4
20260508182449 7 283 1.6 4.8 0.00 0.00 0.00 35 1011.1
20260508181944 7 286 3.2 8.0 0.00 0.00 0.00 34 1010.9
20260508181505 7 281 4.8 6.4 0.00 0.00 0.00 36 1018.4
20260508181441 7 295 3.2 3.2 0.00 0.00 0.00 35 1010.7
20260508180938 7 277 1.6 3.2 0.00 0.00 0.00 37 1011.0
20260508180435 7 281 1.6 3.2 0.00 0.00 0.00 36 1010.8
20260508180005 7 281 0.0 6.4 0.00 0.00 0.00 34 1018.4
20260508175931 7 281 1.6 4.8 0.00 0.00 0.00 34 1010.9
20260508175427 7 296 1.6 4.8 0.00 0.00 0.00 34 1010.9
20260508174926 7 277 3.2 3.2 0.00 0.00 0.00 34 1010.9
20260508174423 7 282 1.6 3.2 0.00 0.00 0.00 34 1010.9
20260508174005 7 267 0.0 3.2 0.00 0.00 0.00 38 1018.3
20260508173919 7 267 0.0 3.2 0.00 0.00 0.00 36 1010.5
20260508173505 7 302 0.0 4.8 0.00 0.00 0.00 33 1018.4
20260508173417 7 305 3.2 3.2 0.00 0.00 0.00 32 1011.0
20260508172912 7 296 1.6 3.2 0.00 0.00 0.00 33 1010.9
20260508172504 7 292 1.6 4.8 0.00 0.00 0.00 34 1018.5
20260508172410 7 283 1.6 3.2 0.00 0.00 0.00 34 1011.0
20260508172005 7 237 0.0 3.2 0.00 0.00 0.00 36 1018.4
20260508171906 7 236 0.0 1.6 0.00 0.00 0.00 35 1011.0
20260508171505 7 294 1.6 4.8 0.00 0.00 0.00 37 1018.2
20260508171402 7 288 0.0 1.6 0.00 0.00 0.00 36 1011.0
20260508170859 7 279 0.0 3.2 0.00 0.00 0.00 34 1011.0
20260508170505 7 295 0.0 3.2 0.00 0.00 0.00 36 1018.1
20260508170357 7 296 0.0 1.6 0.00 0.00 0.00 36 1010.9
20260508170004 7 298 1.6 3.2 0.00 0.00 0.00 34 1018.5
20260508165853 7 302 1.6 1.6 0.00 0.00 0.00 35 1010.9
20260508165351 7 299 0.0 1.6 0.00 0.00 0.00 33 1011.4
20260508165004 8 277 3.2 4.8 0.00 0.00 0.00 32 1018.5
20260508164847 8 298 4.8 4.8 0.00 0.00 0.00 32 1011.1
20260508164505 8 275 3.2 4.8 0.00 0.00 0.00 32 1018.6
20260508164344 8 286 1.6 4.8 0.00 0.00 0.00 32 1010.9
20260508164005 8 277 0.0 6.4 0.00 0.00 0.00 32 1018.4
20260508163841 8 286 1.6 3.2 0.00 0.00 0.00 32 1011.1
20260508163339 8 305 1.6 3.2 0.00 0.00 0.00 34 1011.3
20260508163004 8 288 1.6 3.2 0.00 0.00 0.00 34 1018.8
20260508162835 8 279 1.6 4.8 0.00 0.00 0.00 35 1011.3
20260508162505 8 288 1.6 4.8 0.00 0.00 0.00 36 1018.8
20260508162332 8 251 3.2 3.2 0.00 0.00 0.00 39 1011.0
20260508162004 8 276 3.2 4.8 0.00 0.00 0.00 40 1018.6
20260508161829 8 273 1.6 3.2 0.00 0.00 0.00 41 1011.3
20260508161326 8 277 1.6 3.2 0.00 0.00 0.00 42 1011.0
20260508161005 8 282 3.2 4.8 0.00 0.00 0.00 42 1018.5
20260508160823 8 280 0.0 1.6 0.00 0.00 0.00 43 1011.1
20260508160322 8 284 0.0 3.2 0.00 0.00 0.00 42 1011.2
20260508160006 9 288 0.0 3.2 0.00 0.00 0.00 42 1018.7
20260508155818 9 302 1.6 3.2 0.00 0.00 0.00 41 1011.0
20260508155504 9 335 1.6 4.8 0.00 0.00 0.00 41 1018.6
20260508155315 9 311 3.2 4.8 0.00 0.00 0.00 41 1010.9
20260508155005 9 320 1.6 4.8 0.00 0.00 0.00 41 1018.6
20260508154812 9 287 1.6 4.8 0.00 0.00 0.00 41 1011.0
20260508154505 9 289 3.2 6.4 0.00 0.00 0.00 42 1018.5
20260508154310 9 301 3.2 8.0 0.00 0.00 0.00 42 1011.1
20260508153806 9 274 1.6 4.8 0.00 0.00 0.00 43 1011.0
20260508153303 10 296 0.0 4.8 0.00 0.00 0.00 43 1011.1
20260508153005 10 247 1.6 6.4 0.00 0.00 0.00 43 1018.5
20260508152759 10 336 1.6 4.8 0.00 0.00 0.00 44 1010.9
20260508152505 10 249 1.6 6.4 0.00 0.00 0.00 44 1018.6
20260508152256 10 39 0.0 3.2 0.00 0.00 0.00 45 1010.9
20260508152004 10 280 4.8 9.7 0.00 0.00 0.00 44 1018.3
20260508151752 10 292 3.2 12.9 0.00 0.00 0.00 45 1010.5
20260508151504 10 282 6.4 8.0 0.00 0.00 0.00 47 1018.2
20260508151249 10 203 3.2 4.8 0.00 0.00 0.00 47 1010.7
20260508150745 10 286 8.0 11.3 0.00 0.00 0.00 53 1010.7
20260508150505 10 316 6.4 8.0 0.00 0.00 0.00 58 1018.4
20260508150242 10 176 3.2 8.0 0.00 0.00 0.00 60 1010.7
20260508150007 10 277 4.8 8.0 0.00 0.00 0.00 56 1018.3
20260508145738 10 211 1.6 8.0 0.00 0.00 0.00 54 1010.9
20260508145235 10 348 3.2 4.8 0.00 0.00 0.00 60 1011.1
20260508144731 11 292 4.8 4.8 0.00 0.00 0.00 61 1011.1
20260508144230 11 283 1.6 4.8 0.00 0.00 0.00 57 1010.9
20260508144005 11 267 3.2 6.4 0.00 0.00 0.00 56 1018.4
20260508143727 11 259 3.2 8.0 0.00 0.00 0.00 55 1010.8
20260508143504 11 307 3.2 6.4 0.00 0.00 0.00 55 1018.3
20260508143224 11 287 3.2 22.5 0.00 0.00 0.00 54 1010.4
20260508143005 11 249 4.8 8.0 0.00 0.00 0.00 54 1018.0
20260508142720 11 272 6.4 9.7 0.00 0.00 0.00 54 1010.4
20260508142504 11 291 3.2 19.3 0.00 0.00 0.00 54 1018.1
20260508142217 11 225 1.6 4.8 0.00 0.00 0.00 55 1010.3
20260508141713 11 297 3.2 4.8 0.00 0.00 0.00 54 1010.4
20260508141504 11 273 4.8 8.0 0.00 0.00 0.00 54 1017.9
20260508141211 11 288 3.2 3.2 0.00 0.00 0.00 54 1010.7
20260508141005 11 280 1.6 11.3 0.00 0.00 0.00 53 1017.9
20260508140708 11 307 4.8 4.8 0.00 0.00 0.00 55 1010.2
20260508140504 11 258 3.2 4.8 0.00 0.00 0.00 55 1018.1
20260508140205 11 225 3.2 8.0 0.00 0.00 0.00 55 1010.2
20260508140004 12 271 1.6 3.2 0.00 0.00 0.00 55 1017.9
20260508135701 12 280 0.0 4.8 0.00 0.00 0.00 54 1010.1
20260508135202 12 274 3.2 9.7 0.00 0.00 0.00 54 1010.3
20260508135005 12 276 3.2 8.0 0.00 0.00 0.00 54 1017.7
20260508134658 12 279 4.8 8.0 0.00 0.00 0.00 55 1010.2
20260508134505 12 280 3.2 9.7 0.00 0.00 0.00 57 1017.8
20260508134155 12 272 1.6 4.8 0.00 0.00 0.00 57 1009.9
20260508134004 12 274 4.8 8.0 0.00 0.00 0.00 58 1017.8
20260508133652 12 294 3.2 3.2 0.00 0.00 0.00 58 1009.9
20260508133505 12 309 1.6 4.8 0.00 0.00 0.00 58 1017.7
20260508133150 12 259 1.6 12.9 0.00 0.00 0.00 56 1010.3
20260508132647 12 315 0.0 4.8 0.00 0.00 0.00 57 1010.1
20260508132505 12 290 3.2 6.4 0.00 0.00 0.00 57 1017.7
20260508132144 11 268 3.2 9.7 0.00 0.00 0.00 59 1010.1
20260508132004 11 276 6.4 9.7 0.00 0.00 0.00 60 1017.7
20260508131640 12 286 3.2 8.0 0.00 0.00 0.00 65 1010.2
20260508131136 12 265 1.6 3.2 0.00 0.00 0.00 63 1010.2
20260508131005 12 219 3.2 6.4 0.00 0.00 0.00 61 1017.6
20260508130633 12 207 3.2 4.8 0.00 0.00 0.00 62 1010.1
20260508130504 12 298 3.2 6.4 0.00 0.00 0.00 63 1017.7
20260508130130 12 249 3.2 4.8 0.00 0.00 0.00 66 1010.2
20260508130010 12 286 3.2 4.8 0.00 0.00 0.00 65 1017.8
20260508125625 13 303 4.8 4.8 0.00 0.00 0.00 61 1010.2
20260508125504 13 266 4.8 8.0 0.00 0.00 0.00 58 1017.5
20260508125123 13 239 4.8 9.7 0.00 0.00 0.00 57 1009.8
20260508125005 13 228 4.8 11.3 0.00 0.00 0.00 57 1017.4
20260508124621 13 283 4.8 4.8 0.00 0.00 0.00 54 1009.7
20260508124118 13 279 8.0 11.3 0.00 0.00 0.00 51 1009.5
20260508123616 13 266 3.2 4.8 0.00 0.00 0.00 50 1009.7
20260508123505 13 283 4.8 9.7 0.00 0.00 0.00 50 1016.9
20260508123113 13 291 1.6 11.3 0.00 0.00 0.00 49 1009.4
20260508123004 13 245 6.4 19.3 0.00 0.00 0.00 49 1017.3
20260508122609 13 289 3.2 8.0 0.00 0.00 0.00 54 1009.5
20260508122505 13 287 4.8 8.0 0.00 0.00 0.00 55 1017.2
20260508122106 13 307 1.6 8.0 0.00 0.00 0.00 57 1009.3
20260508121605 13 299 3.2 4.8 0.00 0.00 0.00 57 1009.4
20260508121504 13 287 4.8 6.4 0.00 0.00 0.00 57 1017.2
20260508121103 13 280 3.2 8.0 0.00 0.00 0.00 57 1009.7
20260508120600 13 284 1.6 3.2 0.00 0.00 0.00 57 1009.8
20260508120058 13 301 3.2 4.8 0.00 0.00 0.00 58 1009.8
20260508120005 13 301 3.2 6.4 0.00 0.00 0.00 58 1017.4
20260508115555 13 278 4.8 4.8 0.00 0.00 0.00 62 1009.5
20260508115505 13 278 6.4 6.4 0.00 0.00 0.00 62 1017.2
20260508115051 13 274 0.0 3.2 0.00 0.00 0.00 63 1009.5
20260508115004 13 274 1.6 4.8 0.00 0.00 0.00 63 1017.2
20260508114549 14 295 3.2 4.8 0.00 0.00 0.00 65 1009.8
20260508114505 14 295 3.2 6.4 0.00 0.00 0.00 65 1017.4
20260508114045 15 263 1.6 3.2 0.00 0.00 0.00 61 1009.7
20260508114007 15 263 3.2 4.8 0.00 0.00 0.00 61 1017.3
20260508113542 15 204 1.6 3.2 0.00 0.00 0.00 58 1009.4
20260508113040 15 283 1.6 3.2 0.00 0.00 0.00 56 1009.3
20260508113006 15 283 3.2 4.8 0.00 0.00 0.00 56 1017.0
20260508112536 15 307 1.6 4.8 0.00 0.00 0.00 56 1009.3
20260508112505 15 307 3.2 6.4 0.00 0.00 0.00 56 1017.0
20260508112033 15 305 0.0 0.0 0.00 0.00 0.00 55 1009.3
20260508112005 15 305 0.0 0.0 0.00 0.00 0.00 55 1017.0
20260508111530 15 291 0.0 1.6 0.00 0.00 0.00 55 1009.4
20260508111027 15 280 0.0 3.2 0.00 0.00 0.00 55 1009.3
20260508110525 15 294 1.6 3.2 0.00 0.00 0.00 54 1009.2
20260508110021 15 275 3.2 3.2 0.00 0.00 0.00 54 1009.3
20260508110005 15 275 3.2 4.8 0.00 0.00 0.00 54 1017.0
20260508105516 15 261 0.0 3.2 0.00 0.00 0.00 53 1009.0
20260508105504 15 289 3.2 4.8 0.00 0.00 0.00 53 1016.9
20260508105014 15 305 0.0 1.6 0.00 0.00 0.00 54 1009.1
20260508105005 15 305 0.0 3.2 0.00 0.00 0.00 54 1016.8
20260508104511 15 303 0.0 3.2 0.00 0.00 0.00 53 1009.1
20260508104505 15 303 0.0 4.8 0.00 0.00 0.00 53 1016.8
20260508104007 15 10 0.0 1.6 0.00 0.00 0.00 52 1009.1
20260508104004 15 10 1.6 3.2 0.00 0.00 0.00 52 1016.8
20260508103505 16 284 3.2 6.4 0.00 0.00 0.00 51 1016.9
20260508103010 16 318 3.2 4.8 0.00 0.00 0.00 50 1016.8
20260508103002 15 307 1.6 8.0 0.00 0.00 0.00 51 1009.0
20260508102504 15 309 1.6 3.2 0.00 0.00 0.00 53 1016.8
20260508102500 15 309 1.6 1.6 0.00 0.00 0.00 53 1009.1
20260508102005 15 291 0.0 4.8 0.00 0.00 0.00 54 1016.5
20260508101956 15 291 0.0 3.2 0.00 0.00 0.00 54 1008.8
20260508101505 16 184 3.2 4.8 0.00 0.00 0.00 53 1016.6
20260508101454 16 184 1.6 3.2 0.00 0.00 0.00 53 1008.9
20260508101004 16 282 0.0 4.8 0.00 0.00 0.00 52 1016.8
20260508100951 16 282 0.0 3.2 0.00 0.00 0.00 52 1009.1
20260508100505 16 279 4.8 8.0 0.00 0.00 0.00 52 1016.6
20260508100450 16 279 4.8 8.0 0.00 0.00 0.00 52 1008.9
20260508095945 16 282 3.2 8.0 0.00 0.00 0.00 52 1008.7
20260508095443 16 283 1.6 4.8 0.00 0.00 0.00 51 1008.6
20260508095004 16 289 4.8 6.4 0.00 0.00 0.00 50 1016.4
20260508094940 16 289 3.2 4.8 0.00 0.00 0.00 50 1008.7
20260508094505 16 299 1.6 4.8 0.00 0.00 0.00 48 1016.4
20260508094437 16 299 1.6 3.2 0.00 0.00 0.00 48 1008.7
20260508094005 17 307 1.6 9.7 0.00 0.00 0.00 49 1016.2
20260508093933 17 307 1.6 9.7 0.00 0.00 0.00 49 1008.4
20260508093505 17 236 1.6 6.4 0.00 0.00 0.00 50 1016.0
20260508093431 17 236 0.0 4.8 0.00 0.00 0.00 50 1008.2
20260508092928 17 250 0.0 3.2 0.00 0.00 0.00 50 1008.3
20260508092504 17 287 1.6 8.0 0.00 0.00 0.00 49 1015.9
20260508092426 17 287 1.6 8.0 0.00 0.00 0.00 49 1008.1
20260508091924 17 289 0.0 3.2 0.00 0.00 0.00 49 1008.0
20260508091504 17 321 4.8 4.8 0.00 0.00 0.00 48 1016.2
20260508091421 17 321 3.2 3.2 0.00 0.00 0.00 48 1008.4
20260508090918 17 283 4.8 4.8 0.00 0.00 0.00 48 1008.0
20260508090417 17 278 0.0 3.2 0.00 0.00 0.00 47 1008.2
20260508090005 17 357 3.2 6.4 0.00 0.00 0.00 47 1015.7
20260508085912 17 357 3.2 4.8 0.00 0.00 0.00 47 1007.9
20260508085505 17 295 1.6 4.8 0.00 0.00 0.00 46 1015.8
20260508085409 17 295 0.0 3.2 0.00 0.00 0.00 46 1008.0
20260508085004 17 285 1.6 4.8 0.00 0.00 0.00 46 1016.1
20260508084905 17 286 1.6 3.2 0.00 0.00 0.00 45 1007.8
20260508084402 17 284 1.6 4.8 0.00 0.00 0.00 45 1008.1
20260508084005 17 285 1.6 4.8 0.00 0.00 0.00 44 1015.9
20260508083900 17 282 3.2 3.2 0.00 0.00 0.00 44 1008.2
20260508083358 17 297 4.8 8.0 0.00 0.00 0.00 44 1008.1
20260508083004 17 317 3.2 6.4 0.00 0.00 0.00 44 1015.8
20260508082856 17 317 1.6 4.8 0.00 0.00 0.00 44 1007.9
20260508082505 17 310 1.6 4.8 0.00 0.00 0.00 44 1016.1
20260508082355 17 307 3.2 3.2 0.00 0.00 0.00 44 1008.3
20260508082004 17 287 1.6 4.8 0.00 0.00 0.00 44 1015.9
20260508081852 17 289 1.6 3.2 0.00 0.00 0.00 45 1008.2
20260508081348 17 296 0.0 3.2 0.00 0.00 0.00 43 1008.2
20260508081005 17 301 0.0 4.8 0.00 0.00 0.00 43 1016.4
20260508080846 17 301 1.6 8.0 0.00 0.00 0.00 42 1008.4
20260508080504 17 284 3.2 8.0 0.00 0.00 0.00 42 1016.1
20260508080343 18 308 1.6 3.2 0.00 0.00 0.00 42 1008.7
20260508080004 18 298 3.2 4.8 0.00 0.00 0.00 41 1016.4
20260508075840 18 305 0.0 3.2 0.00 0.00 0.00 42 1008.6
20260508075505 18 288 3.2 9.7 0.00 0.00 0.00 41 1016.4
20260508075337 18 295 3.2 9.7 0.00 0.00 0.00 41 1008.7
20260508075004 18 281 6.4 9.7 0.00 0.00 0.00 41 1016.2
20260508074835 18 321 4.8 8.0 0.00 0.00 0.00 40 1008.4
20260508074332 18 277 1.6 4.8 0.00 0.00 0.00 43 1008.3
20260508073828 18 277 3.2 4.8 0.00 0.00 0.00 43 1008.4
20260508073505 18 312 1.6 3.2 0.00 0.00 0.00 45 1016.3
20260508073327 18 312 1.6 1.6 0.00 0.00 0.00 43 1008.7
20260508073004 19 329 1.6 6.4 0.00 0.00 0.00 40 1016.2
20260508072822 19 278 3.2 4.8 0.00 0.00 0.00 39 1008.3
20260508072504 19 288 3.2 6.4 0.00 0.00 0.00 35 1016.3
20260508072319 19 301 3.2 4.8 0.00 0.00 0.00 35 1008.4
20260508072004 19 317 3.2 8.0 0.00 0.00 0.00 34 1015.8
20260508071817 19 264 6.4 9.7 0.00 0.00 0.00 34 1008.3
20260508071315 20 357 1.6 3.2 0.00 0.00 0.00 34 1008.6
20260508071005 20 298 8.0 9.7 0.00 0.00 0.00 32 1016.0
20260508070812 20 237 3.2 8.0 0.00 0.00 0.00 34 1008.4
20260508070504 20 260 1.6 4.8 0.00 0.00 0.00 33 1016.2
20260508070311 20 264 4.8 4.8 0.00 0.00 0.00 33 1008.4
20260508070006 20 125 3.2 6.4 0.00 0.00 0.00 34 1016.2
20260508065807 20 208 1.6 3.2 0.00 0.00 0.00 35 1008.4
20260508065505 20 276 3.2 6.4 0.00 0.00 0.00 37 1016.0
20260508065307 20 247 1.6 3.2 0.00 0.00 0.00 38 1008.3
20260508065005 20 298 3.2 6.4 0.00 0.00 0.00 37 1016.1
20260508064803 20 272 1.6 3.2 0.00 0.00 0.00 37 1008.4
20260508064505 20 303 0.0 3.2 0.00 0.00 0.00 37 1016.2
20260508064301 20 314 1.6 9.7 0.00 0.00 0.00 37 1008.3
20260508064004 20 253 1.6 4.8 0.00 0.00 0.00 38 1016.2
20260508063758 20 267 1.6 3.2 0.00 0.00 0.00 37 1008.6
20260508063256 20 286 3.2 4.8 0.00 0.00 0.00 36 1008.6
20260508063004 20 310 1.6 3.2 0.00 0.00 0.00 37 1016.0
20260508062753 20 294 1.6 3.2 0.00 0.00 0.00 37 1008.4
20260508062506 20 274 3.2 4.8 0.00 0.00 0.00 38 1016.2
20260508062250 19 317 3.2 4.8 0.00 0.00 0.00 38 1008.6
20260508062005 19 323 3.2 4.8 0.00 0.00 0.00 39 1016.3
20260508061747 19 202 1.6 3.2 0.00 0.00 0.00 40 1008.4
20260508061244 19 269 0.0 3.2 0.00 0.00 0.00 42 1008.8
20260508060741 19 241 1.6 1.6 0.00 0.00 0.00 41 1008.7
20260508060239 19 157 4.8 4.8 0.00 0.00 0.00 42 1008.8
20260508060005 19 105 0.0 3.2 0.00 0.00 0.00 44 1016.7
20260508055734 19 98 1.6 3.2 0.00 0.00 0.00 43 1009.3
20260508055505 19 275 1.6 4.8 0.00 0.00 0.00 42 1016.8
20260508055231 19 255 3.2 3.2 0.00 0.00 0.00 43 1009.2
20260508054727 19 257 3.2 4.8 0.00 0.00 0.00 43 1008.9
20260508054505 19 247 1.6 4.8 0.00 0.00 0.00 43 1016.9
20260508054226 19 239 1.6 3.2 0.00 0.00 0.00 43 1009.4
20260508054006 20 269 3.2 4.8 0.00 0.00 0.00 42 1017.0
20260508053722 20 278 1.6 3.2 0.00 0.00 0.00 40 1009.3
20260508053219 20 271 1.6 4.8 0.00 0.00 0.00 41 1009.7
20260508052716 20 322 0.0 3.2 0.00 0.00 0.00 42 1009.3
20260508052505 20 230 3.2 4.8 0.00 0.00 0.00 42 1017.1
20260508052213 20 285 1.6 1.6 0.00 0.00 0.00 41 1009.5
20260508052004 20 328 1.6 4.8 0.00 0.00 0.00 41 1017.1
20260508051709 20 319 1.6 3.2 0.00 0.00 0.00 42 1009.4
20260508051505 20 255 3.2 6.4 0.00 0.00 0.00 41 1017.1
20260508051205 20 229 1.6 3.2 0.00 0.00 0.00 41 1009.5
20260508050702 20 254 3.2 3.2 0.00 0.00 0.00 41 1009.5
20260508050504 20 282 3.2 6.4 0.00 0.00 0.00 42 1017.3
20260508050200 20 328 3.2 4.8 0.00 0.00 0.00 42 1009.9
20260508045654 20 178 1.6 3.2 0.00 0.00 0.00 42 1009.7
20260508045504 20 253 1.6 6.4 0.00 0.00 0.00 43 1017.2
20260508045153 20 313 3.2 4.8 0.00 0.00 0.00 41 1009.5
20260508045005 20 251 3.2 4.8 0.00 0.00 0.00 41 1017.4
20260508044650 20 164 0.0 1.6 0.00 0.00 0.00 42 1010.0
20260508044146 20 201 1.6 4.8 0.00 0.00 0.00 41 1010.2
20260508044005 20 240 3.2 8.0 0.00 0.00 0.00 41 1017.7
20260508043642 19 224 1.6 1.6 0.00 0.00 0.00 42 1010.5
20260508043140 19 267 3.2 4.8 0.00 0.00 0.00 46 1010.1
20260508043004 19 44 1.6 3.2 0.00 0.00 0.00 46 1017.9
20260508042637 19 284 0.0 3.2 0.00 0.00 0.00 45 1010.3
20260508042134 20 187 1.6 4.8 0.00 0.00 0.00 45 1010.2
20260508042006 20 215 3.2 6.4 0.00 0.00 0.00 41 1017.9
20260508041630 21 237 1.6 1.6 0.00 0.00 0.00 38 1010.2
20260508041505 21 237 1.6 3.2 0.00 0.00 0.00 38 1017.8
20260508041127 21 246 1.6 3.2 0.00 0.00 0.00 37 1010.2
20260508041005 21 205 3.2 3.2 0.00 0.00 0.00 37 1017.7
20260508040624 21 276 0.0 1.6 0.00 0.00 0.00 36 1010.1
20260508040121 21 269 1.6 3.2 0.00 0.00 0.00 35 1010.4
20260508040005 21 251 3.2 4.8 0.00 0.00 0.00 35 1017.9
20260508035618 22 197 0.0 4.8 0.00 0.00 0.00 34 1010.5
20260508035116 22 270 3.2 4.8 0.00 0.00 0.00 32 1010.5
20260508034612 22 260 1.6 8.0 0.00 0.00 0.00 32 1010.8
20260508034505 22 199 6.4 8.0 0.00 0.00 0.00 31 1018.1
20260508034109 22 181 0.0 4.8 0.00 0.00 0.00 32 1010.7
20260508033607 22 263 3.2 4.8 0.00 0.00 0.00 32 1010.9
20260508033105 22 156 6.4 11.3 0.00 0.00 0.00 31 1010.9
20260508033004 22 280 6.4 8.0 0.00 0.00 0.00 32 1018.1
20260508032601 22 280 1.6 4.8 0.00 0.00 0.00 32 1010.9
20260508032059 22 208 4.8 4.8 0.00 0.00 0.00 34 1011.0
20260508032004 22 254 3.2 8.0 0.00 0.00 0.00 33 1018.6
20260508031556 22 282 4.8 8.0 0.00 0.00 0.00 32 1010.9
20260508031052 22 241 1.6 3.2 0.00 0.00 0.00 33 1011.1
20260508030548 23 102 4.8 12.9 0.00 0.00 0.00 33 1010.9
20260508030047 22 202 3.2 8.0 0.00 0.00 0.00 34 1011.3
20260508030005 23 309 3.2 8.0 0.00 0.00 0.00 33 1018.9
20260508025542 23 339 3.2 8.0 0.00 0.00 0.00 30 1011.4
20260508025505 23 224 4.8 6.4 0.00 0.00 0.00 33 1019.1
20260508025039 22 327 3.2 8.0 0.00 0.00 0.00 35 1011.4
20260508024535 21 303 1.6 3.2 0.00 0.00 0.00 37 1011.6
20260508024506 21 297 3.2 4.8 0.00 0.00 0.00 37 1019.1
20260508024033 21 314 3.2 11.3 0.00 0.00 0.00 38 1011.6
20260508024004 21 298 4.8 9.7 0.00 0.00 0.00 41 1019.1
20260508023529 21 335 0.0 3.2 0.00 0.00 0.00 42 1012.0
20260508023026 21 80 1.6 4.8 0.00 0.00 0.00 41 1012.2
20260508023005 21 250 4.8 6.4 0.00 0.00 0.00 41 1019.5
20260508022522 22 236 0.0 3.2 0.00 0.00 0.00 42 1012.2
20260508022504 22 236 1.6 4.8 0.00 0.00 0.00 42 1019.6
20260508022019 22 274 4.8 4.8 0.00 0.00 0.00 39 1012.2
20260508022005 22 274 4.8 6.4 0.00 0.00 0.00 39 1019.6
20260508021515 22 256 4.8 8.0 0.00 0.00 0.00 43 1012.2
20260508021504 22 256 4.8 8.0 0.00 0.00 0.00 43 1019.6
20260508021011 21 337 3.2 9.7 0.00 0.00 0.00 44 1012.4
20260508021005 21 337 4.8 9.7 0.00 0.00 0.00 44 1019.8
20260508020509 21 46 4.8 8.0 0.00 0.00 0.00 46 1012.1
20260508020504 21 46 4.8 8.0 0.00 0.00 0.00 46 1019.5
20260508020007 20 210 3.2 3.2 0.00 0.00 0.00 49 1012.4
20260508020004 20 210 3.2 4.8 0.00 0.00 0.00 49 1019.8
20260508015504 19 292 0.0 3.2 0.00 0.00 0.00 52 1012.6
20260508015005 19 184 3.2 4.8 0.00 0.00 0.00 51 1019.9
20260508015001 19 184 1.6 3.2 0.00 0.00 0.00 51 1012.5
20260508014457 19 252 1.6 4.8 0.00 0.00 0.00 53 1012.4
20260508013953 18 314 1.6 3.2 0.00 0.00 0.00 53 1012.5
20260508013505 18 180 3.2 3.2 0.00 0.00 0.00 54 1020.0
20260508013449 18 180 1.6 1.6 0.00 0.00 0.00 54 1012.6
20260508013005 18 203 3.2 6.4 0.00 0.00 0.00 55 1020.0
20260508012947 18 203 1.6 4.8 0.00 0.00 0.00 55 1012.6
20260508012505 18 279 1.6 4.8 0.00 0.00 0.00 55 1020.2
20260508012443 18 279 0.0 3.2 0.00 0.00 0.00 55 1012.9
20260508012005 18 236 1.6 3.2 0.00 0.00 0.00 58 1020.2
20260508011941 18 236 0.0 1.6 0.00 0.00 0.00 58 1012.9
20260508011439 17 281 1.6 1.6 0.00 0.00 0.00 58 1012.9
20260508010936 17 167 0.0 0.0 0.00 0.00 0.00 60 1013.2
20260508010433 17 249 1.6 1.6 0.00 0.00 0.00 60 1013.3
20260508010004 16 325 0.0 3.2 0.00 0.00 0.00 63 1020.7
20260508005930 16 325 0.0 1.6 0.00 0.00 0.00 63 1013.4
20260508005505 16 326 0.0 3.2 0.00 0.00 0.00 64 1020.7
20260508005427 16 326 0.0 1.6 0.00 0.00 0.00 64 1013.4
20260508005004 16 326 1.6 3.2 0.00 0.00 0.00 64 1020.8
20260508004923 16 326 1.6 1.6 0.00 0.00 0.00 64 1013.5
20260508004419 16 109 0.0 0.0 0.00 0.00 0.00 66 1013.6
20260508003916 15 109 0.0 0.0 0.00 0.00 0.00 67 1013.5
20260508003413 15 109 0.0 0.0 0.00 0.00 0.00 67 1013.4
20260508003007 15 109 0.0 0.0 0.00 0.00 0.00 67 1020.6
20260508002910 16 109 0.0 0.0 0.00 0.00 0.00 67 1013.3
20260508002505 15 109 0.0 0.0 0.00 0.00 0.00 67 1020.5
20260508002407 15 108 0.0 1.6 0.00 0.00 0.00 66 1013.1
20260508002005 16 32 1.6 3.2 0.00 0.00 0.00 67 1020.9
20260508001903 16 31 0.0 0.0 0.00 0.00 0.00 67 1013.8
20260508001504 16 31 0.0 3.2 0.00 0.00 0.00 67 1021.0
20260508001359 16 31 0.0 1.6 0.00 0.00 0.00 67 1013.6
20260508001005 15 32 1.6 3.2 0.00 0.00 0.00 66 1020.9
20260508000855 15 32 0.0 0.0 0.00 0.00 0.00 66 1013.7
20260508000505 15 33 0.0 3.2 0.00 0.00 0.00 67 1020.9
20260508000352 16 34 1.6 1.6 0.00 0.00 0.00 67 1013.5
20260508000005 16 187 0.0 0.0 0.00 0.00 0.00 66 1021.2
20260507235848 16 187 0.0 0.0 0.00 0.00 0.00 66 1014.0
20260507235504 16 187 1.6 3.2 0.00 0.00 0.00 66 1021.3
20260507235346 16 187 0.0 0.0 0.00 0.00 0.00 66 1013.7
20260507235005 16 187 0.0 3.2 0.00 0.00 0.00 66 1021.3
20260507234843 16 187 0.0 1.6 0.00 0.00 0.00 66 1013.7
20260507234340 16 187 1.6 3.2 0.00 0.00 0.00 65 1013.6
20260507233836 16 127 0.0 0.0 0.00 0.00 0.00 66 1014.0
20260507233507 16 127 0.0 0.0 0.00 0.00 0.00 66 1021.3
20260507233334 16 127 0.0 0.0 0.00 0.00 0.00 66 1014.1
20260507233004 15 127 0.0 3.2 0.00 0.00 0.00 66 1021.2
20260507232832 15 127 0.0 0.0 0.00 0.00 0.00 66 1014.0
20260507232505 15 127 0.0 3.2 0.00 0.00 0.00 66 1021.2
20260507232328 15 130 0.0 1.6 0.00 0.00 0.00 66 1014.1
20260507232007 16 279 1.6 3.2 0.00 0.00 0.00 67 1021.2
20260507231826 16 356 0.0 0.0 0.00 0.00 0.00 67 1014.1
20260507231504 16 356 0.0 3.2 0.00 0.00 0.00 67 1021.2
20260507231322 16 356 0.0 1.6 0.00 0.00 0.00 66 1013.7
20260507231005 16 356 0.0 3.2 0.00 0.00 0.00 66 1021.1
20260507230818 16 356 0.0 0.0 0.00 0.00 0.00 66 1013.7
20260507230315 16 356 0.0 0.0 0.00 0.00 0.00 66 1013.8
20260507230005 15 356 1.6 3.2 0.00 0.00 0.00 66 1020.9
20260507225810 15 356 0.0 0.0 0.00 0.00 0.00 66 1013.4
20260507225504 15 356 1.6 3.2 0.00 0.00 0.00 67 1020.9
20260507225306 15 356 0.0 0.0 0.00 0.00 0.00 67 1013.6
20260507225005 15 356 0.0 0.0 0.00 0.00 0.00 67 1020.8
20260507224802 15 357 0.0 1.6 0.00 0.00 0.00 66 1013.8
20260507224259 16 294 0.0 0.0 0.00 0.00 0.00 65 1013.7
20260507223755 16 248 1.6 1.6 0.00 0.00 0.00 64 1014.0
20260507223251 16 247 0.0 1.6 0.00 0.00 0.00 63 1014.1
20260507223005 16 247 1.6 3.2 0.00 0.00 0.00 62 1021.3
20260507222749 16 254 0.0 3.2 0.00 0.00 0.00 61 1014.1
20260507222505 16 260 0.0 3.2 0.00 0.00 0.00 61 1021.3
20260507222244 16 259 1.6 3.2 0.00 0.00 0.00 60 1014.2
20260507222005 17 186 1.6 4.8 0.00 0.00 0.00 59 1021.4
20260507221742 17 186 4.8 4.8 0.00 0.00 0.00 58 1013.8
20260507221505 17 236 3.2 4.8 0.00 0.00 0.00 57 1021.3
20260507221238 17 256 1.6 3.2 0.00 0.00 0.00 57 1014.0
20260507220734 17 243 1.6 1.6 0.00 0.00 0.00 58 1014.0
20260507220504 17 213 1.6 3.2 0.00 0.00 0.00 57 1021.0
20260507220233 17 212 1.6 3.2 0.00 0.00 0.00 57 1014.0
20260507220004 17 221 0.0 3.2 0.00 0.00 0.00 56 1021.0
20260507215728 17 133 0.0 1.6 0.00 0.00 0.00 54 1014.0
20260507215227 17 245 1.6 4.8 0.00 0.00 0.00 50 1013.8
20260507215005 17 264 1.6 6.4 0.00 0.00 0.00 50 1021.0
20260507214723 17 266 1.6 3.2 0.00 0.00 0.00 51 1013.8
20260507214505 17 274 1.6 3.2 0.00 0.00 0.00 51 1021.1
20260507214221 17 275 3.2 4.8 0.00 0.00 0.00 50 1014.0
20260507214004 17 11 1.6 3.2 0.00 0.00 0.00 52 1021.1
20260507213716 17 282 0.0 1.6 0.00 0.00 0.00 51 1014.1
20260507213505 17 282 1.6 3.2 0.00 0.00 0.00 52 1021.4
20260507213213 16 319 1.6 3.2 0.00 0.00 0.00 52 1014.4
20260507213005 17 307 1.6 3.2 0.00 0.00 0.00 52 1021.3
20260507212709 17 324 3.2 3.2 0.00 0.00 0.00 51 1014.1
20260507212505 17 278 3.2 4.8 0.00 0.00 0.00 51 1021.2
20260507212206 17 312 1.6 1.6 0.00 0.00 0.00 51 1014.0
20260507212004 17 281 3.2 6.4 0.00 0.00 0.00 51 1021.2
20260507211703 17 309 1.6 4.8 0.00 0.00 0.00 51 1014.2
20260507211504 17 283 3.2 6.4 0.00 0.00 0.00 52 1021.3
20260507211158 17 264 0.0 3.2 0.00 0.00 0.00 52 1013.7
20260507211004 17 260 1.6 3.2 0.00 0.00 0.00 52 1021.1
20260507210656 17 278 1.6 4.8 0.00 0.00 0.00 53 1014.0
20260507210505 16 221 3.2 9.7 0.00 0.00 0.00 52 1021.2